NOAA 16 DEB, 41707

Orbit data source: Space-Track

NOAA 16 DEB, 41707 is space debris in SSO originally from a launch on Thu, 21 Sep 2000 UTC launched from the Air Force Western Test Range (AFWTR). Debris objects in space refer to the collection of defunct objects orbiting the Earth. Examples of debris include non-operational satellites, rocket bodies, and fragments generated from explosions, collisions, or faulty payload assembly.

Loading next visibility...
Identifier
41707, 2000-055PM
Orbit
SSO
Country
Flag of USUS
Related business
Manufacturer
Unknown
Mission
Spacecraft
Bus & Motor
Unknown
Mass
Unknown
Launch date (UTC)
2000-09-21 (26 years ago)
Launch vehicle
Unknown
Launch site
Air Force Western Test Range (AFWTR)
Object type
Payload
Rocket body
Debris
Shape & HBR
Unknown shape, 0.1 m
Radar Cross Section
Medium (>0.1 m² and <1 m²)

Expand to show TLE details & history
Last TLE update: 3 days ago

TLE from 3 days ago
0 NOAA 16 DEB
1 41707U 00055PM  26170.64776543  .00006159  00000-0  15116-2 0  9994
2 41707  98.8473 322.0486 0023132 120.9453 239.4019 14.52590591529308
Epoch: 2026-06-19T15:32Z
TLE epoch observation values (Epoch: 2026-06-19T15:32:46.933Z)
Latitude
0.00005°
Longitude
-179.02069°
Altitude
728.539 km
Speed
7.486 km/s
True Right ascension
21h 28m 11s
True Declination
0° 00' 00"
Sunlit
Object was in full shadow at epoch
Visualization orbit readout
Latitude
Unknown
Longitude
Unknown
Altitude
Unknown
Speed
Unknown
Apparent Right ascension
Unknown
Apparent Declination
Unknown
Sunlit
N/A
Visualization observer readout
Local Sidereal Time
21:34:52
Azimuth
Unknown
Elevation
Unknown
Doppler factor
Unknown
Orbital elements
Apogee altitude
730.728 km
Perigee altitude
697.916 km
Semi-major axis
7,092.459 km
Eccentricity
0.00231
Inclination
98.8473°
RAAN
322.0486°
Arg. of periapsis
120.9453°
True anomaly
239.17407°
Mean anomaly
239.4019°
Eccentric anomaly
239.28795°
Mean motion
3.63369 °/min
Orbital period
99.07 mins
BSTAR
0.0015116
Loading maneuver chart data...
Computing Atmospheric mass density...
Loading historical data...
Loading historical data...
Loading historical data...
Loading historical data...
Loading historical data...
Loading historical data...
Loading historical data...

Documentation

Showing up to 5 results
|